Date String (YYYY-MM-DD hh:mm:ss) UTC,Instrument flags,Ambient pressure (hPa),Sample flow (lpm),Bypass flow (lpm),Sample temperature (°C),Ambient temperature (°C),ASC tube jacket temperature (°C),LED temperature (°C),Box temperature (°C),Sample RH (%),Span deviation,Mass concentration (μg/m³),Mass concentration (μg/m³),Mass concentration (μg/m³)
DateTimeUTC,F1_M11,P_M11,Q1_M11,Q2_M11,T1_M11,T2_M11,T3_M11,T4_M11,T5_M11,U1_M11,ZSPAN_M11,X0_M11,X2_M11,X1_M11
2023-03-06 09:00:00,,0822.4,5.01,0.00,21.0,19.1,00.0,29.9,22.3,11.6,0000.0,0007.63,0002.88,0001.84
2023-03-06 09:01:00,,0822.4,5.00,0.00,20.9,19.0,00.0,29.9,22.2,11.7,0000.0,0007.52,0002.80,0001.82
2023-03-06 09:02:00,,0822.4,5.00,0.00,21.0,20.3,00.0,29.9,22.6,11.6,0000.0,0007.52,0002.79,0001.81
2023-03-06 09:03:00,,0822.4,4.96,0.00,21.2,21.5,00.0,29.8,23.0,11.5,0000.0,0007.56,0002.77,0001.78
2023-03-06 09:04:00,,0822.4,5.01,0.00,21.3,22.2,00.0,29.9,23.2,11.5,0000.0,0006.62,0002.75,0001.76
2023-03-06 09:05:00,,0822.4,5.00,0.00,21.4,21.7,00.0,29.9,23.1,11.4,0000.0,0006.13,0002.68,0001.72
2023-03-06 09:06:00,,0822.4,5.01,0.00,21.3,20.9,00.0,30.0,22.9,11.4,0000.0,0006.12,0002.68,0001.69
2023-03-06 09:07:00,,0822.4,5.01,0.00,21.2,20.1,00.0,30.0,22.7,11.4,0000.0,0005.39,0002.66,0001.67
2023-03-06 09:08:00,,0822.4,4.99,0.00,21.2,19.6,00.0,30.0,22.5,11.4,0000.0,0005.02,0002.66,0001.65
2023-03-06 09:09:00,,0822.4,4.99,0.00,21.1,19.1,00.0,29.9,22.3,11.5,0000.0,0005.12,0002.59,0001.63
2023-03-06 09:10:00,,0822.4,5.01,0.00,21.0,18.7,00.0,29.9,22.2,11.6,0000.0,0005.08,0002.55,0001.62
2023-03-06 09:11:00,,0822.5,5.02,0.00,20.9,19.1,00.0,29.9,22.2,11.6,0000.0,0004.86,0002.50,0001.62
2023-03-06 09:12:00,,0822.4,4.99,0.00,21.0,20.6,00.0,29.8,22.6,11.6,0000.0,0004.92,0002.54,0001.63
2023-03-06 09:13:00,,0822.4,5.03,0.00,21.2,21.8,00.0,29.8,23.0,11.5,0000.0,0004.95,0002.52,0001.63
2023-03-06 09:14:00,,0822.4,4.99,0.00,21.3,22.2,00.0,29.9,23.2,11.4,0000.0,0004.94,0002.47,0001.64
2023-03-06 09:15:00,,0822.4,4.99,0.00,21.3,21.3,00.0,29.9,23.0,11.4,0000.0,0004.95,0002.47,0001.66
2023-03-06 09:16:00,,0822.4,5.01,0.00,21.2,20.5,00.0,29.9,22.7,11.4,0000.0,0005.07,0002.51,0001.68
2023-03-06 09:17:00,,0822.4,5.00,0.00,21.1,19.9,00.0,29.9,22.5,11.5,0000.0,0005.00,0002.48,0001.70
2023-03-06 09:18:00,,0822.4,5.00,0.00,21.1,19.3,00.0,29.9,22.3,11.5,0000.0,0005.01,0002.46,0001.70
2023-03-06 09:19:00,,0822.4,4.99,0.00,21.0,18.9,00.0,29.9,22.2,11.5,0000.0,0005.12,0002.46,0001.69
2023-03-06 09:20:00,,0822.4,5.01,0.00,20.9,19.3,00.0,29.9,22.2,11.6,0000.0,0004.93,0002.48,0001.69
2023-03-06 09:21:00,,0822.4,5.01,0.00,21.0,20.7,00.0,29.8,22.6,11.5,0000.0,0004.91,0002.49,0001.69
2023-03-06 09:22:00,,0822.4,5.01,0.00,21.2,21.8,00.0,29.8,23.0,11.4,0000.0,0005.05,0002.55,0001.70
2023-03-06 09:23:00,,0822.4,5.04,0.00,21.3,22.3,00.0,29.9,23.2,11.3,0000.0,0005.27,0002.59,0001.71
2023-03-06 09:24:00,,0822.4,4.99,0.00,21.3,21.5,00.0,29.9,23.0,11.3,0000.0,0005.63,0002.68,0001.72
2023-03-06 09:25:00,,0822.5,5.02,0.00,21.3,20.6,00.0,29.9,22.7,11.3,0000.0,0005.96,0002.79,0001.73
2023-03-06 09:26:00,,0822.4,5.00,0.00,21.2,20.0,00.0,29.9,22.5,11.3,0000.0,0006.15,0002.86,0001.75
2023-03-06 09:27:00,,0822.4,4.99,0.00,21.1,19.5,00.0,29.9,22.4,11.3,0000.0,0006.30,0002.93,0001.76
2023-03-06 09:28:00,,0822.4,5.00,0.00,21.0,19.1,00.0,29.9,22.2,11.4,0000.0,0006.54,0003.03,0001.79
2023-03-06 09:29:00,,0822.4,5.01,0.00,20.9,18.8,00.0,29.9,22.2,11.3,0000.0,0006.99,0003.17,0001.82
2023-03-06 09:30:00,,0822.4,5.03,0.00,20.9,19.9,00.0,29.8,22.4,11.2,0000.0,0007.39,0003.25,0001.85
2023-03-06 09:31:00,,0822.4,5.02,0.00,21.1,21.1,00.0,29.8,22.8,11.1,0000.0,0007.80,0003.38,0001.91
2023-03-06 09:32:00,,0822.4,5.00,0.00,21.2,22.1,00.0,29.8,23.1,11.0,0000.0,0007.92,0003.44,0001.96
2023-03-06 09:33:00,,0822.4,5.02,0.00,21.3,21.9,00.0,29.9,23.1,10.9,0000.0,0008.08,0003.47,0001.97
2023-03-06 09:34:00,,0822.4,5.01,0.00,21.3,21.0,00.0,29.9,22.9,10.8,0000.0,0008.32,0003.50,0002.01
2023-03-06 09:35:00,,0822.4,4.98,0.00,21.2,20.3,00.0,29.9,22.7,10.8,0000.0,0008.37,0003.53,0002.00
2023-03-06 09:36:00,,0822.4,5.00,0.00,21.1,19.7,00.0,29.9,22.5,10.7,0000.0,0008.34,0003.55,0001.99
2023-03-06 09:37:00,,0822.4,5.00,0.00,21.0,19.3,00.0,29.9,22.4,10.7,0000.0,0008.46,0003.57,0001.98
2023-03-06 09:38:00,,0822.4,4.99,0.00,20.9,18.8,00.0,29.9,22.2,10.6,0000.0,0008.51,0003.57,0001.96
2023-03-06 09:39:00,,0822.4,5.00,0.00,20.8,18.9,00.0,29.8,22.1,10.5,0000.0,0008.40,0003.53,0001.92
2023-03-06 09:40:00,,0822.4,4.98,0.00,20.9,20.4,00.0,29.8,22.5,10.4,0000.0,0008.16,0003.45,0001.87
2023-03-06 09:41:00,,0822.4,4.98,0.00,21.1,21.5,00.0,29.8,22.9,10.2,0000.0,0007.83,0003.36,0001.81
2023-03-06 09:42:00,,0822.5,5.07,0.00,21.3,22.4,00.0,29.8,23.2,10.1,0000.0,0007.51,0003.26,0001.75
2023-03-06 09:43:00,,0822.4,4.99,0.00,21.4,22.3,00.0,29.9,23.2,10.1,0000.0,0007.40,0003.20,0001.70
2023-03-06 09:44:00,,0822.4,4.99,0.00,21.3,21.4,00.0,29.9,23.0,10.1,0000.0,0007.39,0003.18,0001.67
2023-03-06 09:45:00,,0822.4,5.01,0.00,21.3,20.6,00.0,30.0,22.8,10.0,0000.0,0007.51,0003.20,0001.62
2023-03-06 09:46:00,,0822.5,5.01,0.00,21.2,20.0,00.0,29.9,22.6,10.0,0000.0,0007.81,0003.16,0001.58
2023-03-06 09:47:00,,0822.4,4.99,0.00,21.1,19.5,00.0,29.9,22.4,10.0,0000.0,0007.72,0003.06,0001.55
2023-03-06 09:48:00,,0822.4,5.00,0.00,21.0,19.0,00.0,29.9,22.2,10.1,0000.0,0007.50,0002.91,0001.51
2023-03-06 09:49:00,,0822.5,5.01,0.00,20.9,18.9,00.0,29.9,22.1,10.2,0000.0,0007.28,0002.78,0001.49
2023-03-06 09:50:00,,0822.4,5.00,0.00,21.0,20.2,00.0,29.8,22.5,10.2,0000.0,0007.34,0002.79,0001.48
2023-03-06 09:51:00,,0822.4,5.00,0.00,21.1,21.4,00.0,29.8,22.9,10.2,0000.0,0007.24,0002.73,0001.49
2023-03-06 09:52:00,,0822.4,4.99,0.00,21.3,22.3,00.0,29.9,23.1,10.1,0000.0,0007.36,0002.75,0001.49
2023-03-06 09:53:00,,0822.4,4.99,0.00,21.3,21.7,00.0,29.9,23.0,10.2,0000.0,0007.41,0002.77,0001.50
2023-03-06 09:54:00,,0822.4,5.00,0.00,21.3,20.9,00.0,29.9,22.8,10.2,0000.0,0007.52,0002.83,0001.49
2023-03-06 09:55:00,,0822.4,4.98,0.00,21.2,20.2,00.0,29.9,22.6,10.3,0000.0,0007.64,0002.89,0001.49
2023-03-06 09:56:00,,0822.4,5.00,0.00,21.1,19.7,00.0,29.9,22.5,10.3,0000.0,0006.96,0002.74,0001.49
2023-03-06 09:57:00,,0822.4,5.01,0.00,21.1,19.3,00.0,29.9,22.4,10.3,0000.0,0006.05,0002.70,0001.50
2023-03-06 09:58:00,,0822.4,5.01,0.00,21.0,18.9,00.0,29.9,22.3,10.2,0000.0,0005.79,0002.71,0001.51
2023-03-06 09:59:00,,0822.4,5.01,0.00,20.9,19.4,00.0,29.9,22.4,10.3,0000.0,0005.92,0002.78,0001.53
